| time (UTC) | temp C | wind direction | speed KPH | gust KPH | rain 1hr cm | rain 24hr cm | rain mn cm | humidity % | barometer mb |
| 20260902231704 | 33 | 230 | 3.2 | 14.5 | 0.00 | 0.00 | 0.00 | 56 | 1014.0 |
| 20260902231204 | 33 | 222 | 0.0 | 8.0 | 0.00 | 0.00 | 0.00 | 57 | 1014.0 |
| 20260902230705 | 33 | 215 | 3.2 | 9.7 | 0.00 | 0.00 | 0.00 | 56 | 1014.1 |
| 20260902230204 | 33 | 233 | 4.8 | 9.7 | 0.00 | 0.00 | 0.00 | 55 | 1014.1 |
| 20260902225703 | 34 | 223 | 4.8 | 12.9 | 0.00 | 0.00 | 0.00 | 55 | 1014.2 |
| 20260902225205 | 34 | 220 | 4.8 | 12.9 | 0.00 | 0.00 | 0.00 | 55 | 1014.2 |
| 20260902224704 | 34 | 218 | 1.6 | 9.7 | 0.00 | 0.00 | 0.00 | 55 | 1014.2 |
| 20260902224204 | 35 | 213 | 3.2 | 9.7 | 0.00 | 0.00 | 0.00 | 54 | 1014.1 |
| 20260902223704 | 35 | 219 | 1.6 | 4.8 | 0.00 | 0.00 | 0.00 | 54 | 1014.1 |
| 20260902223204 | 35 | 228 | 1.6 | 8.0 | 0.00 | 0.00 | 0.00 | 53 | 1014.1 |
| 20260902222704 | 35 | 286 | 1.6 | 3.2 | 0.00 | 0.00 | 0.00 | 53 | 1014.1 |
| 20260902222205 | 35 | 182 | 1.6 | 9.7 | 0.00 | 0.00 | 0.00 | 53 | 1014.2 |
| 20260902221704 | 35 | 199 | 3.2 | 9.7 | 0.00 | 0.00 | 0.00 | 52 | 1014.2 |
| 20260902220705 | 35 | 293 | 3.2 | 8.0 | 0.00 | 0.00 | 0.00 | 52 | 1014.2 |
| 20260902220204 | 35 | 258 | 4.8 | 9.7 | 0.00 | 0.00 | 0.00 | 52 | 1014.3 |
| 20260902215704 | 35 | 215 | 1.6 | 8.0 | 0.00 | 0.00 | 0.00 | 52 | 1014.2 |
| 20260902215204 | 35 | 244 | 3.2 | 11.3 | 0.00 | 0.00 | 0.00 | 52 | 1014.3 |
| 20260902214704 | 35 | 219 | 4.8 | 11.3 | 0.00 | 0.00 | 0.00 | 52 | 1014.3 |
| 20260902214204 | 35 | 271 | 3.2 | 9.7 | 0.00 | 0.00 | 0.00 | 52 | 1014.3 |
| 20260902213704 | 36 | 202 | 1.6 | 9.7 | 0.00 | 0.00 | 0.00 | 52 | 1014.2 |
| 20260902213204 | 35 | 223 | 4.8 | 11.3 | 0.00 | 0.00 | 0.00 | 51 | 1014.3 |
| 20260902212703 | 35 | 231 | 3.2 | 11.3 | 0.00 | 0.00 | 0.00 | 51 | 1014.3 |
| 20260902212205 | 35 | 228 | 0.0 | 3.2 | 0.00 | 0.00 | 0.00 | 52 | 1014.3 |
| 20260902211704 | 35 | 222 | 1.6 | 9.7 | 0.00 | 0.00 | 0.00 | 52 | 1014.3 |
| 20260902211204 | 35 | 210 | 6.4 | 14.5 | 0.00 | 0.00 | 0.00 | 51 | 1014.4 |
| 20260902210703 | 35 | 214 | 4.8 | 16.1 | 0.00 | 0.00 | 0.00 | 51 | 1014.4 |
| 20260902210204 | 35 | 211 | 1.6 | 8.0 | 0.00 | 0.00 | 0.00 | 53 | 1014.4 |
| 20260902205703 | 35 | 278 | 3.2 | 11.3 | 0.00 | 0.00 | 0.00 | 53 | 1014.5 |
| 20260902205204 | 35 | 210 | 4.8 | 9.7 | 0.00 | 0.00 | 0.00 | 52 | 1014.5 |
| 20260902204704 | 35 | 234 | 4.8 | 12.9 | 0.00 | 0.00 | 0.00 | 51 | 1014.5 |
| 20260902204205 | 35 | 206 | 1.6 | 12.9 | 0.00 | 0.00 | 0.00 | 52 | 1014.5 |
| 20260902203204 | 35 | 205 | 4.8 | 16.1 | 0.00 | 0.00 | 0.00 | 52 | 1014.6 |
| 20260902202705 | 35 | 217 | 4.8 | 16.1 | 0.00 | 0.00 | 0.00 | 52 | 1014.6 |
| 20260902202204 | 35 | 185 | 4.8 | 11.3 | 0.00 | 0.00 | 0.00 | 52 | 1014.6 |
| 20260902201204 | 35 | 212 | 4.8 | 11.3 | 0.00 | 0.00 | 0.00 | 53 | 1014.6 |
| 20260902200703 | 35 | 210 | 1.6 | 11.3 | 0.00 | 0.00 | 0.00 | 53 | 1014.6 |
| 20260902200204 | 35 | 214 | 3.2 | 4.8 | 0.00 | 0.00 | 0.00 | 52 | 1014.7 |
| 20260902195704 | 35 | 231 | 3.2 | 11.3 | 0.00 | 0.00 | 0.00 | 53 | 1014.8 |
| 20260902195204 | 34 | 209 | 3.2 | 11.3 | 0.00 | 0.00 | 0.00 | 54 | 1014.8 |
| 20260902194704 | 34 | 212 | 3.2 | 11.3 | 0.00 | 0.00 | 0.00 | 53 | 1014.9 |
| 20260902194204 | 34 | 233 | 8.0 | 12.9 | 0.00 | 0.00 | 0.00 | 53 | 1014.9 |
| 20260902193704 | 34 | 214 | 4.8 | 12.9 | 0.00 | 0.00 | 0.00 | 54 | 1015.0 |
| 20260902192703 | 34 | 202 | 1.6 | 9.7 | 0.00 | 0.00 | 0.00 | 55 | 1015.1 |
| 20260902192205 | 34 | 223 | 3.2 | 14.5 | 0.00 | 0.00 | 0.00 | 53 | 1015.3 |
| 20260902191704 | 33 | 266 | 4.8 | 9.7 | 0.00 | 0.00 | 0.00 | 55 | 1015.3 |
| 20260902191204 | 33 | 230 | 0.0 | 8.0 | 0.00 | 0.00 | 0.00 | 55 | 1015.3 |
| 20260902190704 | 33 | 220 | 1.6 | 8.0 | 0.00 | 0.00 | 0.00 | 55 | 1015.4 |
| 20260902190204 | 33 | 218 | 1.6 | 4.8 | 0.00 | 0.00 | 0.00 | 54 | 1015.5 |
| 20260902185705 | 33 | 225 | 1.6 | 11.3 | 0.00 | 0.00 | 0.00 | 53 | 1015.5 |
| 20260902185205 | 33 | 226 | 4.8 | 11.3 | 0.00 | 0.00 | 0.00 | 53 | 1015.5 |
| 20260902184704 | 33 | 277 | 1.6 | 4.8 | 0.00 | 0.00 | 0.00 | 55 | 1015.5 |
| 20260902184204 | 33 | 244 | 0.0 | 3.2 | 0.00 | 0.00 | 0.00 | 55 | 1015.6 |
| 20260902183204 | 33 | 211 | 3.2 | 12.9 | 0.00 | 0.00 | 0.00 | 55 | 1015.6 |
| 20260902182702 | 33 | 214 | 3.2 | 9.7 | 0.00 | 0.00 | 0.00 | 54 | 1015.6 |
| 20260902182203 | 33 | 243 | 1.6 | 4.8 | 0.00 | 0.00 | 0.00 | 57 | 1015.7 |
| 20260902181203 | 33 | 321 | 1.6 | 8.0 | 0.00 | 0.00 | 0.00 | 57 | 1015.7 |
| 20260902180703 | 34 | 219 | 4.8 | 9.7 | 0.00 | 0.00 | 0.00 | 57 | 1015.8 |
| 20260902180202 | 34 | 221 | 4.8 | 8.0 | 0.00 | 0.00 | 0.00 | 58 | 1015.9 |
| 20260902175703 | 34 | 327 | 1.6 | 9.7 | 0.00 | 0.00 | 0.00 | 57 | 1016.0 |
| 20260902175203 | 34 | 211 | 4.8 | 9.7 | 0.00 | 0.00 | 0.00 | 56 | 1016.0 |
| 20260902174703 | 34 | 252 | 1.6 | 9.7 | 0.00 | 0.00 | 0.00 | 58 | 1016.0 |
| 20260902174202 | 33 | 213 | 3.2 | 8.0 | 0.00 | 0.00 | 0.00 | 57 | 1016.1 |
| 20260902173703 | 34 | 251 | 3.2 | 12.9 | 0.00 | 0.00 | 0.00 | 56 | 1016.2 |
| 20260902173203 | 34 | 261 | 4.8 | 14.5 | 0.00 | 0.00 | 0.00 | 55 | 1016.2 |
| 20260902172203 | 34 | 228 | 4.8 | 11.3 | 0.00 | 0.00 | 0.00 | 54 | 1016.3 |
| 20260902171703 | 34 | 205 | 4.8 | 11.3 | 0.00 | 0.00 | 0.00 | 55 | 1016.3 |
| 20260902171203 | 34 | 203 | 3.2 | 4.8 | 0.00 | 0.00 | 0.00 | 55 | 1016.3 |
| 20260902170704 | 33 | 215 | 3.2 | 14.5 | 0.00 | 0.00 | 0.00 | 55 | 1016.3 |
| 20260902170203 | 33 | 257 | 3.2 | 14.5 | 0.00 | 0.00 | 0.00 | 56 | 1016.3 |
| 20260902165703 | 33 | 310 | 3.2 | 9.7 | 0.00 | 0.00 | 0.00 | 56 | 1016.4 |
| 20260902165202 | 33 | 165 | 6.4 | 16.1 | 0.00 | 0.00 | 0.00 | 55 | 1016.4 |
| 20260902164703 | 33 | 221 | 6.4 | 12.9 | 0.00 | 0.00 | 0.00 | 55 | 1016.5 |
| 20260902163703 | 33 | 217 | 3.2 | 9.7 | 0.00 | 0.00 | 0.00 | 57 | 1016.5 |
| 20260902163203 | 33 | 169 | 4.8 | 14.5 | 0.00 | 0.00 | 0.00 | 58 | 1016.5 |
| 20260902162702 | 33 | 215 | 3.2 | 8.0 | 0.00 | 0.00 | 0.00 | 58 | 1016.5 |
| 20260902162203 | 33 | 266 | 6.4 | 11.3 | 0.00 | 0.00 | 0.00 | 58 | 1016.5 |
| 20260902161703 | 33 | 195 | 3.2 | 11.3 | 0.00 | 0.00 | 0.00 | 60 | 1016.5 |
| 20260902161205 | 33 | 220 | 3.2 | 12.9 | 0.00 | 0.00 | 0.00 | 59 | 1016.6 |
| 20260902160703 | 32 | 218 | 3.2 | 11.3 | 0.00 | 0.00 | 0.00 | 59 | 1016.6 |
| 20260902160203 | 32 | 216 | 4.8 | 12.9 | 0.00 | 0.00 | 0.00 | 60 | 1016.7 |
| 20260902155704 | 32 | 232 | 4.8 | 12.9 | 0.00 | 0.00 | 0.00 | 60 | 1016.8 |
| 20260902155203 | 32 | 201 | 6.4 | 12.9 | 0.00 | 0.00 | 0.00 | 61 | 1016.8 |
| 20260902154703 | 32 | 214 | 1.6 | 9.7 | 0.00 | 0.00 | 0.00 | 62 | 1016.8 |
| 20260902154203 | 32 | 201 | 1.6 | 9.7 | 0.00 | 0.00 | 0.00 | 63 | 1016.9 |
| 20260902153703 | 32 | 239 | 4.8 | 11.3 | 0.00 | 0.00 | 0.00 | 63 | 1017.0 |
| 20260902152203 | 32 | 210 | 3.2 | 12.9 | 0.00 | 0.00 | 0.00 | 63 | 1016.9 |
| 20260902151703 | 31 | 224 | 3.2 | 8.0 | 0.00 | 0.00 | 0.00 | 64 | 1017.0 |
| 20260902151204 | 31 | 237 | 1.6 | 11.3 | 0.00 | 0.00 | 0.00 | 64 | 1017.0 |
| 20260902150703 | 31 | 232 | 4.8 | 11.3 | 0.00 | 0.00 | 0.00 | 64 | 1017.1 |
| 20260902145703 | 31 | 293 | 1.6 | 8.0 | 0.00 | 0.00 | 0.00 | 65 | 1017.0 |
| 20260902145204 | 31 | 221 | 1.6 | 8.0 | 0.00 | 0.00 | 0.00 | 67 | 1016.9 |
| 20260902144704 | 30 | 232 | 4.8 | 11.3 | 0.00 | 0.00 | 0.00 | 66 | 1017.0 |
| 20260902144203 | 30 | 212 | 3.2 | 9.7 | 0.00 | 0.00 | 0.00 | 67 | 1017.0 |
| 20260902143703 | 30 | 283 | 1.6 | 4.8 | 0.00 | 0.00 | 0.00 | 68 | 1017.0 |
| 20260902143203 | 30 | 253 | 1.6 | 4.8 | 0.00 | 0.00 | 0.00 | 69 | 1017.0 |
| 20260902142705 | 30 | 236 | 3.2 | 11.3 | 0.00 | 0.00 | 0.00 | 69 | 1017.0 |
| 20260902142203 | 30 | 247 | 6.4 | 12.9 | 0.00 | 0.00 | 0.00 | 69 | 1016.9 |
| 20260902141703 | 29 | 212 | 1.6 | 12.9 | 0.00 | 0.00 | 0.00 | 70 | 1016.9 |
| 20260902140704 | 29 | 214 | 1.6 | 9.7 | 0.00 | 0.00 | 0.00 | 73 | 1017.0 |
| 20260902134704 | 28 | 221 | 3.2 | 8.0 | 0.00 | 0.00 | 0.00 | 73 | 1017.0 |
| 20260902134203 | 28 | 224 | 8.0 | 9.7 | 0.00 | 0.00 | 0.00 | 74 | 1017.0 |
| 20260902133704 | 28 | 235 | 3.2 | 4.8 | 0.00 | 0.00 | 0.00 | 74 | 1016.9 |
| 20260902133203 | 27 | 222 | 4.8 | 11.3 | 0.00 | 0.00 | 0.00 | 75 | 1017.0 |
| 20260902132703 | 27 | 228 | 1.6 | 9.7 | 0.00 | 0.00 | 0.00 | 75 | 1016.9 |
| 20260902132203 | 27 | 216 | 3.2 | 9.7 | 0.00 | 0.00 | 0.00 | 76 | 1016.9 |
| 20260902131704 | 27 | 213 | 0.0 | 8.0 | 0.00 | 0.00 | 0.00 | 76 | 1016.9 |
| 20260902131203 | 27 | 219 | 1.6 | 8.0 | 0.00 | 0.00 | 0.00 | 77 | 1016.9 |
| 20260902130703 | 27 | 224 | 1.6 | 8.0 | 0.00 | 0.00 | 0.00 | 77 | 1016.9 |
| 20260902130203 | 27 | 218 | 0.0 | 4.8 | 0.00 | 0.00 | 0.00 | 77 | 1016.9 |
| 20260902125703 | 26 | 234 | 1.6 | 8.0 | 0.00 | 0.00 | 0.00 | 77 | 1016.9 |
| 20260902125203 | 26 | 219 | 0.0 | 3.2 | 0.00 | 0.00 | 0.00 | 78 | 1016.9 |
| 20260902124703 | 26 | 219 | 3.2 | 8.0 | 0.00 | 0.00 | 0.00 | 78 | 1016.8 |
| 20260902124203 | 26 | 218 | 1.6 | 8.0 | 0.00 | 0.00 | 0.00 | 79 | 1016.8 |
| 20260902123703 | 26 | 216 | 1.6 | 3.2 | 0.00 | 0.00 | 0.00 | 79 | 1016.7 |
| 20260902123203 | 26 | 236 | 0.0 | 4.8 | 0.00 | 0.00 | 0.00 | 80 | 1016.7 |
| 20260902122703 | 25 | 198 | 1.6 | 8.0 | 0.00 | 0.00 | 0.00 | 80 | 1016.7 |
| 20260902122204 | 25 | 222 | 1.6 | 8.0 | 0.00 | 0.00 | 0.00 | 81 | 1016.7 |
| 20260902121703 | 25 | 62 | 3.2 | 8.0 | 0.00 | 0.00 | 0.00 | 81 | 1016.6 |
| 20260902120203 | 25 | 46 | 1.6 | 9.7 | 0.00 | 0.00 | 0.00 | 83 | 1016.6 |
| 20260902115703 | 24 | 43 | 1.6 | 4.8 | 0.00 | 0.00 | 0.00 | 83 | 1016.6 |
| 20260902115204 | 24 | 40 | 0.0 | 4.8 | 0.00 | 0.00 | 0.00 | 83 | 1016.5 |
| 20260902114704 | 24 | 38 | 0.0 | 3.2 | 0.00 | 0.00 | 0.00 | 83 | 1016.4 |
| 20260902114203 | 24 | 38 | 0.0 | 1.6 | 0.00 | 0.00 | 0.00 | 84 | 1016.4 |
| 20260902113703 | 24 | 44 | 0.0 | 1.6 | 0.00 | 0.00 | 0.00 | 84 | 1016.3 |
| 20260902112704 | 24 | 50 | 0.0 | 0.0 | 0.00 | 0.00 | 0.00 | 84 | 1016.2 |
| 20260902112203 | 24 | 51 | 0.0 | 0.0 | 0.00 | 0.00 | 0.00 | 84 | 1016.2 |
| 20260902111703 | 24 | 53 | 0.0 | 0.0 | 0.00 | 0.00 | 0.00 | 84 | 1016.1 |
| 20260902111203 | 24 | 53 | 0.0 | 0.0 | 0.00 | 0.00 | 0.00 | 84 | 1016.1 |
| 20260902110703 | 24 | 53 | 0.0 | 0.0 | 0.00 | 0.00 | 0.00 | 84 | 1016.1 |
| 20260902110203 | 24 | 53 | 0.0 | 0.0 | 0.00 | 0.00 | 0.00 | 83 | 1016.1 |
| 20260902105703 | 24 | 51 | 0.0 | 0.0 | 0.00 | 0.00 | 0.00 | 83 | 1016.1 |
| 20260902105203 | 24 | 51 | 0.0 | 0.0 | 0.00 | 0.00 | 0.00 | 83 | 1016.2 |
| 20260902104704 | 24 | 51 | 0.0 | 0.0 | 0.00 | 0.00 | 0.00 | 83 | 1016.2 |
| 20260902104204 | 24 | 50 | 0.0 | 0.0 | 0.00 | 0.00 | 0.00 | 83 | 1016.1 |
| 20260902103703 | 24 | 48 | 0.0 | 0.0 | 0.00 | 0.00 | 0.00 | 83 | 1016.2 |
| 20260902103203 | 24 | 47 | 0.0 | 0.0 | 0.00 | 0.00 | 0.00 | 83 | 1016.2 |
| 20260902102703 | 24 | 48 | 0.0 | 0.0 | 0.00 | 0.00 | 0.00 | 83 | 1016.1 |
| 20260902102203 | 24 | 48 | 0.0 | 0.0 | 0.00 | 0.00 | 0.00 | 83 | 1016.1 |
| 20260902101703 | 25 | 48 | 0.0 | 0.0 | 0.00 | 0.00 | 0.00 | 82 | 1016.0 |
| 20260902101203 | 25 | 49 | 0.0 | 0.0 | 0.00 | 0.00 | 0.00 | 82 | 1016.1 |
| 20260902100703 | 25 | 49 | 0.0 | 0.0 | 0.00 | 0.00 | 0.00 | 82 | 1016.1 |
| 20260902100203 | 25 | 48 | 0.0 | 0.0 | 0.00 | 0.00 | 0.00 | 82 | 1016.0 |
| 20260902095703 | 25 | 47 | 0.0 | 0.0 | 0.00 | 0.00 | 0.00 | 82 | 1016.0 |
| 20260902095204 | 25 | 47 | 0.0 | 0.0 | 0.00 | 0.00 | 0.00 | 82 | 1016.0 |
| 20260902094705 | 25 | 47 | 0.0 | 0.0 | 0.00 | 0.00 | 0.00 | 81 | 1016.0 |
| 20260902094203 | 25 | 46 | 0.0 | 0.0 | 0.00 | 0.00 | 0.00 | 81 | 1016.0 |
| 20260902093703 | 25 | 46 | 0.0 | 0.0 | 0.00 | 0.00 | 0.00 | 81 | 1016.0 |
| 20260902093203 | 25 | 46 | 0.0 | 0.0 | 0.00 | 0.00 | 0.00 | 81 | 1016.0 |
| 20260902092203 | 25 | 44 | 0.0 | 0.0 | 0.00 | 0.00 | 0.00 | 81 | 1016.0 |
| 20260902091703 | 25 | 44 | 0.0 | 0.0 | 0.00 | 0.00 | 0.00 | 81 | 1016.0 |
| 20260902091204 | 25 | 43 | 0.0 | 0.0 | 0.00 | 0.00 | 0.00 | 81 | 1015.9 |
| 20260902090704 | 25 | 43 | 0.0 | 0.0 | 0.00 | 0.00 | 0.00 | 81 | 1015.8 |
| 20260902090203 | 25 | 44 | 0.0 | 0.0 | 0.00 | 0.00 | 0.00 | 81 | 1015.8 |
| 20260902085204 | 25 | 44 | 0.0 | 0.0 | 0.00 | 0.00 | 0.00 | 81 | 1015.7 |
| 20260902084704 | 25 | 44 | 0.0 | 0.0 | 0.00 | 0.00 | 0.00 | 81 | 1015.7 |
| 20260902084203 | 25 | 44 | 0.0 | 0.0 | 0.00 | 0.00 | 0.00 | 80 | 1015.5 |
| 20260902083703 | 25 | 44 | 0.0 | 0.0 | 0.00 | 0.00 | 0.00 | 80 | 1015.4 |
| 20260902083204 | 25 | 44 | 0.0 | 0.0 | 0.00 | 0.00 | 0.00 | 80 | 1015.4 |
| 20260902082703 | 25 | 44 | 0.0 | 0.0 | 0.00 | 0.00 | 0.00 | 79 | 1015.4 |
| 20260902082203 | 25 | 44 | 0.0 | 0.0 | 0.00 | 0.00 | 0.00 | 79 | 1015.4 |
| 20260902081203 | 25 | 43 | 0.0 | 0.0 | 0.00 | 0.00 | 0.00 | 79 | 1015.3 |
| 20260902080704 | 25 | 43 | 0.0 | 0.0 | 0.00 | 0.00 | 0.00 | 79 | 1015.3 |
| 20260902080203 | 25 | 44 | 0.0 | 0.0 | 0.00 | 0.00 | 0.00 | 79 | 1015.3 |
| 20260902075703 | 25 | 45 | 0.0 | 0.0 | 0.00 | 0.00 | 0.00 | 79 | 1015.3 |
| 20260902075203 | 25 | 48 | 0.0 | 0.0 | 0.00 | 0.00 | 0.00 | 79 | 1015.3 |
| 20260902074704 | 25 | 48 | 0.0 | 0.0 | 0.00 | 0.00 | 0.00 | 78 | 1015.3 |
| 20260902074204 | 25 | 47 | 0.0 | 0.0 | 0.00 | 0.00 | 0.00 | 78 | 1015.3 |
| 20260902073704 | 26 | 48 | 0.0 | 0.0 | 0.00 | 0.00 | 0.00 | 78 | 1015.3 |
| 20260902073203 | 26 | 46 | 0.0 | 0.0 | 0.00 | 0.00 | 0.00 | 78 | 1015.3 |
| 20260902072203 | 26 | 41 | 0.0 | 0.0 | 0.00 | 0.00 | 0.00 | 77 | 1015.2 |
| 20260902071703 | 26 | 42 | 0.0 | 0.0 | 0.00 | 0.00 | 0.00 | 77 | 1015.3 |
| 20260902071203 | 26 | 45 | 0.0 | 0.0 | 0.00 | 0.00 | 0.00 | 77 | 1015.3 |
| 20260902070704 | 26 | 52 | 0.0 | 0.0 | 0.00 | 0.00 | 0.00 | 77 | 1015.3 |
| 20260902070203 | 26 | 56 | 0.0 | 0.0 | 0.00 | 0.00 | 0.00 | 77 | 1015.3 |
| 20260902065704 | 26 | 72 | 0.0 | 0.0 | 0.00 | 0.00 | 0.00 | 77 | 1015.2 |
| 20260902065204 | 26 | 62 | 0.0 | 0.0 | 0.00 | 0.00 | 0.00 | 77 | 1015.3 |
| 20260902064203 | 26 | 20 | 0.0 | 0.0 | 0.00 | 0.00 | 0.00 | 77 | 1015.2 |
| 20260902063704 | 26 | 41 | 0.0 | 0.0 | 0.00 | 0.00 | 0.00 | 76 | 1015.1 |
| 20260902063203 | 26 | 41 | 0.0 | 0.0 | 0.00 | 0.00 | 0.00 | 76 | 1015.2 |
| 20260902062704 | 26 | 55 | 0.0 | 0.0 | 0.00 | 0.00 | 0.00 | 76 | 1015.2 |
| 20260902062203 | 26 | 50 | 0.0 | 0.0 | 0.00 | 0.00 | 0.00 | 76 | 1015.2 |
| 20260902061704 | 26 | 47 | 0.0 | 0.0 | 0.00 | 0.00 | 0.00 | 76 | 1015.3 |
| 20260902061203 | 26 | 48 | 0.0 | 0.0 | 0.00 | 0.00 | 0.00 | 76 | 1015.2 |
| 20260902060703 | 26 | 45 | 0.0 | 0.0 | 0.00 | 0.00 | 0.00 | 76 | 1015.2 |
| 20260902060204 | 27 | 48 | 0.0 | 0.0 | 0.00 | 0.00 | 0.00 | 76 | 1015.2 |
| 20260902055704 | 26 | 52 | 0.0 | 0.0 | 0.00 | 0.00 | 0.00 | 76 | 1015.3 |
| 20260902054203 | 27 | 44 | 0.0 | 0.0 | 0.00 | 0.00 | 0.00 | 75 | 1015.3 |
| 20260902053704 | 27 | 44 | 0.0 | 0.0 | 0.00 | 0.00 | 0.00 | 75 | 1015.3 |
| 20260902051703 | 27 | 199 | 0.0 | 0.0 | 0.00 | 0.00 | 0.00 | 75 | 1015.3 |
| 20260902051203 | 27 | 203 | 0.0 | 0.0 | 0.00 | 0.00 | 0.00 | 75 | 1015.4 |
| 20260902050703 | 27 | 204 | 0.0 | 0.0 | 0.00 | 0.00 | 0.00 | 74 | 1015.3 |
| 20260902045204 | 27 | 204 | 0.0 | 0.0 | 0.00 | 0.00 | 0.00 | 74 | 1015.3 |
| 20260902044704 | 27 | 204 | 0.0 | 0.0 | 0.00 | 0.00 | 0.00 | 74 | 1015.3 |
| 20260902044203 | 27 | 204 | 0.0 | 0.0 | 0.00 | 0.00 | 0.00 | 74 | 1015.4 |
| 20260902043704 | 27 | 204 | 0.0 | 0.0 | 0.00 | 0.00 | 0.00 | 73 | 1015.3 |
| 20260902042704 | 27 | 204 | 0.0 | 0.0 | 0.00 | 0.00 | 0.00 | 73 | 1015.3 |
| 20260902042204 | 27 | 204 | 0.0 | 0.0 | 0.00 | 0.00 | 0.00 | 73 | 1015.3 |
| 20260902041702 | 27 | 204 | 0.0 | 0.0 | 0.00 | 0.00 | 0.00 | 73 | 1015.3 |
| 20260902040704 | 27 | 198 | 0.0 | 0.0 | 0.00 | 0.00 | 0.00 | 72 | 1015.3 |
| 20260902040204 | 27 | 202 | 0.0 | 0.0 | 0.00 | 0.00 | 0.00 | 72 | 1015.4 |
| 20260902035704 | 27 | 203 | 0.0 | 0.0 | 0.00 | 0.00 | 0.00 | 72 | 1015.4 |
| 20260902034703 | 28 | 204 | 0.0 | 0.0 | 0.00 | 0.00 | 0.00 | 72 | 1015.4 |
| 20260902033704 | 28 | 204 | 0.0 | 0.0 | 0.00 | 0.00 | 0.00 | 71 | 1015.4 |
| 20260902033203 | 28 | 204 | 0.0 | 0.0 | 0.00 | 0.00 | 0.00 | 71 | 1015.4 |
| 20260902032203 | 28 | 204 | 0.0 | 0.0 | 0.00 | 0.00 | 0.00 | 70 | 1015.3 |
| 20260902031703 | 28 | 204 | 0.0 | 0.0 | 0.00 | 0.00 | 0.00 | 70 | 1015.3 |
| 20260902031203 | 28 | 204 | 0.0 | 0.0 | 0.00 | 0.00 | 0.00 | 69 | 1015.3 |
| 20260902030704 | 28 | 47 | 0.0 | 0.0 | 0.00 | 0.00 | 0.00 | 70 | 1015.3 |
| 20260902025703 | 28 | 50 | 0.0 | 0.0 | 0.00 | 0.00 | 0.00 | 69 | 1015.3 |
| 20260902024704 | 28 | 46 | 0.0 | 0.0 | 0.00 | 0.00 | 0.00 | 69 | 1015.3 |
| 20260902024205 | 28 | 44 | 0.0 | 0.0 | 0.00 | 0.00 | 0.00 | 70 | 1015.3 |
| 20260902023704 | 28 | 44 | 0.0 | 3.2 | 0.00 | 0.00 | 0.00 | 69 | 1015.3 |
| 20260902022704 | 28 | 58 | 0.0 | 0.0 | 0.00 | 0.00 | 0.00 | 69 | 1015.2 |
| 20260902022203 | 28 | 66 | 0.0 | 0.0 | 0.00 | 0.00 | 0.00 | 69 | 1015.2 |
| 20260902021703 | 28 | 62 | 0.0 | 0.0 | 0.00 | 0.00 | 0.00 | 69 | 1015.2 |
| 20260902021203 | 29 | 62 | 0.0 | 0.0 | 0.00 | 0.00 | 0.00 | 69 | 1015.2 |
| 20260902020703 | 29 | 58 | 0.0 | 0.0 | 0.00 | 0.00 | 0.00 | 69 | 1015.2 |
| 20260902020204 | 29 | 60 | 0.0 | 0.0 | 0.00 | 0.00 | 0.00 | 68 | 1015.3 |
| 20260902015703 | 29 | 61 | 0.0 | 0.0 | 0.00 | 0.00 | 0.00 | 68 | 1015.3 |
| 20260902014703 | 29 | 55 | 0.0 | 0.0 | 0.00 | 0.00 | 0.00 | 67 | 1015.3 |
| 20260902014203 | 29 | 54 | 0.0 | 0.0 | 0.00 | 0.00 | 0.00 | 67 | 1015.2 |
| 20260902013704 | 30 | 55 | 0.0 | 0.0 | 0.00 | 0.00 | 0.00 | 66 | 1015.3 |
| 20260902012703 | 30 | 59 | 0.0 | 0.0 | 0.00 | 0.00 | 0.00 | 66 | 1015.2 |
| 20260902012203 | 30 | 62 | 0.0 | 0.0 | 0.00 | 0.00 | 0.00 | 66 | 1015.1 |
| 20260902011703 | 30 | 68 | 0.0 | 0.0 | 0.00 | 0.00 | 0.00 | 65 | 1015.0 |
| 20260902011205 | 30 | 66 | 0.0 | 0.0 | 0.00 | 0.00 | 0.00 | 64 | 1015.0 |
| 20260902010203 | 30 | 64 | 0.0 | 0.0 | 0.00 | 0.00 | 0.00 | 63 | 1014.9 |
| 20260902005703 | 30 | 65 | 0.0 | 0.0 | 0.00 | 0.00 | 0.00 | 63 | 1014.8 |
| 20260902005203 | 31 | 81 | 0.0 | 0.0 | 0.00 | 0.00 | 0.00 | 62 | 1014.9 |
| 20260902004703 | 31 | 74 | 0.0 | 0.0 | 0.00 | 0.00 | 0.00 | 62 | 1014.8 |
| 20260902003703 | 31 | 93 | 0.0 | 0.0 | 0.00 | 0.00 | 0.00 | 61 | 1014.8 |
| 20260902003203 | 31 | 93 | 0.0 | 0.0 | 0.00 | 0.00 | 0.00 | 60 | 1014.7 |
| 20260902002704 | 31 | 102 | 0.0 | 0.0 | 0.00 | 0.00 | 0.00 | 59 | 1014.7 |
| 20260902001703 | 32 | 96 | 0.0 | 0.0 | 0.00 | 0.00 | 0.00 | 58 | 1014.8 |
| 20260902001203 | 32 | 97 | 0.0 | 0.0 | 0.00 | 0.00 | 0.00 | 57 | 1014.9 |
| 20260902000703 | 32 | 215 | 0.0 | 0.0 | 0.00 | 0.00 | 0.00 | 57 | 1014.9 |
| 20260902000204 | 32 | 215 | 0.0 | 0.0 | 0.00 | 0.00 | 0.00 | 56 | 1014.9 |
| 20260901235203 | 32 | 215 | 0.0 | 0.0 | 0.00 | 0.00 | 0.00 | 55 | 1014.9 |
| 20260901234703 | 32 | 215 | 0.0 | 0.0 | 0.00 | 0.00 | 0.00 | 55 | 1014.9 |
| 20260901234203 | 33 | 215 | 0.0 | 3.2 | 0.00 | 0.00 | 0.00 | 54 | 1014.9 |
| 20260901233704 | 33 | 216 | 1.6 | 4.8 | 0.00 | 0.00 | 0.00 | 53 | 1015.0 |
| 20260901233203 | 33 | 217 | 1.6 | 4.8 | 0.00 | 0.00 | 0.00 | 54 | 1015.0 |
| 20260901232703 | 33 | 213 | 0.0 | 4.8 | 0.00 | 0.00 | 0.00 | 54 | 1015.0 |
| 20260901232204 | 33 | 209 | 0.0 | 4.8 | 0.00 | 0.00 | 0.00 | 54 | 1015.1 |